Regional Weather Roundup
Issued by NWS Green Bay, WI

Home | Current Version | Previous Version | Graphics & Text | Print | Product List | Glossary Off
Versions: 1 2 3 4 5 6 7 8 9 10 11 12 13 14 15 16 17 18 19 20 21 22 23 24 25 26 27 28 29 30 31 32 33 34 35 36 37 38 39 40 41 42 43 44 45 46 47 48 49 50

000
ASUS43 KGRB 181100
RWRGRB

NORTH-CENTRAL AND NORTHEAST WISCONSIN REGIONAL WEATHER ROUNDUP
NATIONAL WEATHER SERVICE GREEN BAY WI
600 AM CDT FRI AUG 18 2017

WIZ005-009-010>012-018-019-181200-
NORTH CENTRAL WISCONSIN

CITY           SKY/WX    TMP DP  RH WIND       PRES   REMARKS
IRONWOOD       LGT RAIN  59  58  96 NW10      29.79S FOG
MANITOWISH WTR NOT AVBL
ARBOR VITAE    NOT AVBL
EAGLE RIVER    NOT AVBL
LAND O LAKES   LGT RAIN  59  58  96 NW9G16    29.76S
RHINELANDER    LGT RAIN  60  59  96 NW7       29.77R
PHILLIPS       CLOUDY    59  59  99 NW5       29.78S
ANTIGO         NOT AVBL
TOMAHAWK       NOT AVBL
MERRILL        NOT AVBL
$$

WIZ013-073-181200-
NORTHEAST WISCONSIN

CITY           SKY/WX    TMP DP  RH WIND       PRES   REMARKS
IRON MOUNTAIN  CLOUDY    63  56  78 NW15G23   29.66R
MARINETTE      CLOUDY    64  59  83 VRB6      29.66R
$$

WIZ017-030-035>037-045-181200-
CENTRAL WISCONSIN

CITY           SKY/WX    TMP DP  RH WIND       PRES   REMARKS
MEDFORD        NOT AVBL
WAUSAU         CLOUDY    62  58  86 NW13      29.75S
MOSINEE        CLOUDY    63  59  88 W12       29.78R
MARSHFIELD     CLOUDY    61  57  87 NW10      29.79R
WISC RAPIDS    CLOUDY    63  59  87 NW9       29.80R
STEVENS POINT  NOT AVBL
WAUPACA        NOT AVBL
SHAWANO        CLOUDY    65  60  81 W8        29.70S
CLINTONVILLE   CLOUDY    64  55  72 NW13G20   29.71F
WAUTOMA        CLOUDY    64  60  87 W12       29.78R
$$

WIZ038-039-048-051-181200-
FOX VALLEY

CITY           SKY/WX    TMP DP  RH WIND       PRES   REMARKS
NWS GREEN BAY  MOCLDY    63  62  97 W13       29.70R
APPLETON       MOCLDY    64  55  72 W16G23    29.73R
OSHKOSH        CLOUDY    65  60  84 W12G18    29.74S
FOND DU LAC    CLOUDY    66  59  78 W14G22    29.76R
$$

WIZ022-050-052-181200-
EAST CENTRAL WISCONSIN

CITY           SKY/WX    TMP DP  RH WIND       PRES   REMARKS
EPHRAIM        NOT AVBL
WASHINGTON ISL NOT AVBL
STURGEON BAY   CLOUDY    65  61  87 W13       29.67R
MANITOWOC      NOT AVBL
SHEBOYGAN      CLOUDY    66  62  87 W7G20     29.73R
$$

LMZ563-521-522-541>543-181200-
LAKESHORE

STATION/POSITION TIME  TEMP    WIND        PRES    VSBY  WAVE
                       AIR SEA DIR/SP/G                  HT/PER
                 (UTC) (F)     (DEG/KT/KT) (MB)    (MI)  (FT/S)
SHEBOYGAN LKSHOR 1000   66     260/ 13/ 16 1005.5R
KEWAUNEE LKSHORE 1030   65     280/ 10/ 21 1003.9R
NORTHPORT PIER   1040   65     290/  8/ 13 1003.0R
N MID LAKE BUOY  0950   65 67  280/ 19/ 21 1001.2R         4/ 6
S GREEN BAY BUOY 1030   66 71  270/ 17/ 19 1004.4R
SISTER BAY LKSHO 1003   66     290/ 17/ 21   N/A
MENOMINEE LKSHOR 1030   65     270/ 11/ 17 1003.6R
$$




USA.gov is the U.S. government's official web portal to all federal, state and local government web resources and services.